Bartlesville, OK

9:36 PM CDT on October 20, 2017 (GMT -0500)
Bartlesville Municipal

Weather History for KBVO - January, 2014

Change the Weather History Date:

Friday, January 17, 2014

  Actual Average Record
Temperature  
Mean Temperature 32 °F -  
Max Temperature 44 °F 46 °F 64 °F (2015)
Min Temperature 21 °F 24 °F 17 °F (2016)
Degree Days  
Heating Degree Days 32    
Moisture  
Dew Point 14 °F    
Average Humidity 51    
Maximum Humidity 81    
Minimum Humidity 28    
Precipitation  
Precipitation 0.00 in - - ()
Sea Level Pressure  
Sea Level Pressure 30.22 in    
Wind  
Wind Speed 4 mph (WNW)    
Max Wind Speed 8 mph    
Max Gust Speed 16 mph    
Visibility 10 miles    
Events      
Averages and records for this station are not official NWS values.
T = Trace of Precipitation, MM = Missing Value Source: NWS Daily Summary

Daily Weather History Graph

Daily Weather History Graph

Search for Another Location

Airport or City:

Trip Planner

Search our weather history database for the weather conditions in past years. The results will help you decide how hot, cold, wet, or windy it might be!

Date:

Astronomy

Jan. 17, 2014 Rise Set
Actual Time 7:35 AM CST 5:33 PM CST
Civil Twilight 7:06 AM CST 6:01 PM CST
Nautical Twilight 6:35 AM CST 6:33 PM CST
Astronomical Twilight 6:04 AM CST 7:04 PM CST
Moon 7:17 PM CST (1/17) 8:06 AM CST (1/17)
Length of Visible Light 10h 54m
Length of Day
9h 58m
Full, 98% of the Moon is Illuminated
Jan 17
Full
Jan 23
Last Quarter
Jan 30
New
Feb 6
First Quarter
Feb 14
Full

Hourly Weather History & Observations

Time (CST) Temp. Windchill Dew Point Humidity Pressure Visibility Wind Dir Wind Speed Gust Speed Precip Events Conditions
12:53 AM 33.1 °F 28.7 °F 15.1 °F 48% 30.20 in 10.0 mi Variable 4.6 mph - N/A   Partly Cloudy
1:53 AM 30.9 °F 25.2 °F 14.0 °F 50% 30.22 in 10.0 mi Variable 5.8 mph - N/A   Clear
2:53 AM 28.9 °F 25.2 °F 14.0 °F 54% 30.23 in 10.0 mi Variable 3.5 mph - N/A   Clear
3:53 AM 28.0 °F 24.2 °F 12.0 °F 51% 30.24 in 10.0 mi Variable 3.5 mph - N/A   Clear
4:53 AM 26.1 °F 21.9 °F 10.9 °F 53% 30.25 in 10.0 mi Variable 3.5 mph - N/A   Clear
5:53 AM 26.1 °F 20.5 °F 10.9 °F 53% 30.25 in 10.0 mi NW 4.6 mph - N/A   Clear
6:53 AM 25.0 °F - 10.9 °F 55% 30.26 in 10.0 mi Calm Calm - N/A   Clear
7:53 AM 26.1 °F 20.5 °F 12.0 °F 55% 30.27 in 10.0 mi WNW 4.6 mph - N/A   Clear
8:53 AM 28.9 °F 21.9 °F 14.0 °F 54% 30.29 in 10.0 mi Variable 6.9 mph - N/A   Clear
9:53 AM 34.0 °F 28.0 °F 14.0 °F 44% 30.30 in 10.0 mi Variable 6.9 mph - N/A   Clear
10:53 AM 37.9 °F 33.5 °F 12.9 °F 36% 30.30 in 10.0 mi Variable 5.8 mph 16.1 mph N/A   Clear
11:53 AM 39.0 °F 33.4 °F 10.9 °F 32% 30.28 in 10.0 mi WNW 8.1 mph - N/A   Clear
12:53 PM 42.1 °F 38.4 °F 12.0 °F 29% 30.25 in 10.0 mi Variable 5.8 mph - N/A   Clear
1:53 PM 42.1 °F 37.7 °F 10.9 °F 28% 30.22 in 10.0 mi WNW 6.9 mph - N/A   Clear
2:53 PM 44.1 °F 40.8 °F 12.9 °F 28% 30.22 in 10.0 mi Variable 5.8 mph - N/A   Clear
3:53 PM 44.1 °F 42.5 °F 15.1 °F 31% 30.22 in 10.0 mi Variable 3.5 mph - N/A   Clear
4:53 PM 42.1 °F 40.2 °F 14.0 °F 32% 30.21 in 10.0 mi WNW 3.5 mph - N/A   Clear
5:53 PM 30.0 °F 26.5 °F 16.0 °F 56% 30.20 in 10.0 mi WSW 3.5 mph - N/A   Clear
6:53 PM 28.0 °F - 16.0 °F 61% 30.20 in 10.0 mi Calm Calm - N/A   Clear
7:53 PM 25.0 °F - 16.0 °F 69% 30.19 in 10.0 mi Calm Calm - N/A   Clear
8:53 PM 23.0 °F - 16.0 °F 74% 30.16 in 6.0 mi Calm Calm - N/A   Haze
9:53 PM 21.9 °F - 16.0 °F 78% 30.15 in 10.0 mi Calm Calm - N/A   Clear
10:53 PM 21.0 °F - 16.0 °F 81% 30.13 in 10.0 mi Calm Calm - N/A   Clear
11:53 PM 23.0 °F - 18.0 °F 81% 30.11 in 10.0 mi Calm Calm - N/A   Mostly Cloudy